CFG2PM SKBO-GOBD

Flight info

Callsign CFG2PM
Flight time 7h 31m
Altitude 35000
Route MAVDA UW20 AUC DCT MIQ/N0466F370 UN669 ELJEZ/M080F370 DCT 2150N DCT 2340N DCT 22N036W DCT ERNEK/N0467F370 DCT EVKAS DCT BVT DCT MOGSA DCT PIVSA PIVSA1D
Aircraft A321/M-SDE3FGHIRWY/LB1

Departure

Time 2026-04-25 11:51
Airport El Dorado International Airport (SKBO)

Arrival

Time 2026-04-25 19:22
Airport Blaise Diagne International Airport (GOBD)
Time Latitude Longitude Altitude Speed Heading
2026-04-25 10:46 4.69999 -74.14337 8373 ft 0 kts 37°
2026-04-25 10:47 4.69993 -74.14342 8372 ft 0 kts 37°
2026-04-25 11:28 4.69983 -74.14349 8348 ft 3 kts 37°
2026-04-25 11:28 4.69966 -74.14362 8372 ft 3 kts 37°
2026-04-25 11:28 4.69948 -74.14372 8372 ft 3 kts
2026-04-25 11:28 4.69932 -74.14368 8373 ft 3 kts 307°
2026-04-25 11:29 4.69920 -74.14349 8372 ft 3 kts 300°
2026-04-25 11:29 4.69917 -74.14344 8373 ft 3 kts 307°
2026-04-25 11:29 4.69931 -74.14361 8373 ft 2 kts 307°
2026-04-25 11:29 4.69932 -74.14362 8373 ft 0 kts 307°
2026-04-25 11:33 4.69932 -74.14363 8373 ft 1 kts 307°
2026-04-25 11:33 4.69952 -74.14389 8372 ft 7 kts 307°
2026-04-25 11:34 4.69978 -74.14424 8371 ft 6 kts 307°
2026-04-25 11:34 4.69994 -74.14445 8373 ft 0 kts 307°
2026-04-25 11:34 4.69994 -74.14446 8373 ft 1 kts 307°
2026-04-25 11:34 4.70012 -74.14469 8373 ft 6 kts 307°
2026-04-25 11:35 4.70034 -74.14499 8372 ft 4 kts 307°
2026-04-25 11:35 4.70060 -74.14533 8371 ft 7 kts 307°
2026-04-25 11:35 4.70082 -74.14577 8373 ft 7 kts 291°
2026-04-25 11:35 4.70122 -74.14634 8373 ft 10 kts 320°
2026-04-25 11:36 4.70160 -74.14679 8373 ft 8 kts 289°
2026-04-25 11:36 4.70125 -74.14741 8373 ft 12 kts 217°
2026-04-25 11:36 4.70063 -74.14787 8373 ft 10 kts 217°
2026-04-25 11:36 4.70014 -74.14824 8371 ft 9 kts 217°
2026-04-25 11:37 4.69954 -74.14869 8373 ft 13 kts 217°
2026-04-25 11:37 4.69888 -74.14920 8371 ft 9 kts 217°
2026-04-25 11:37 4.69861 -74.14974 8373 ft 11 kts 280°
2026-04-25 11:37 4.69903 -74.15041 8372 ft 11 kts 306°
2026-04-25 11:38 4.69949 -74.15100 8372 ft 11 kts 308°
2026-04-25 11:38 4.69993 -74.15157 8373 ft 10 kts 307°
2026-04-25 11:38 4.70021 -74.15194 8372 ft 11 kts 307°
2026-04-25 11:38 4.70076 -74.15267 8373 ft 14 kts 307°
2026-04-25 11:39 4.70128 -74.15336 8371 ft 11 kts 307°
2026-04-25 11:39 4.70168 -74.15389 8374 ft 8 kts 307°
2026-04-25 11:39 4.70198 -74.15429 8374 ft 9 kts 307°
2026-04-25 11:39 4.70254 -74.15504 8372 ft 15 kts 307°
2026-04-25 11:40 4.70313 -74.15581 8373 ft 13 kts 307°
2026-04-25 11:40 4.70360 -74.15643 8373 ft 10 kts 307°
2026-04-25 11:40 4.70400 -74.15696 8373 ft 9 kts 307°
2026-04-25 11:40 4.70440 -74.15750 8373 ft 12 kts 307°
2026-04-25 11:41 4.70495 -74.15823 8373 ft 0 kts 307°
2026-04-25 11:41 4.70500 -74.15829 8373 ft 4 kts 307°
2026-04-25 11:41 4.70533 -74.15858 8373 ft 7 kts 340°
2026-04-25 11:41 4.70585 -74.15846 8373 ft 10 kts 25°
2026-04-25 11:42 4.70640 -74.15857 8372 ft 8 kts 320°
2026-04-25 11:42 4.70674 -74.15899 8370 ft 8 kts 307°
2026-04-25 11:42 4.70705 -74.15940 8371 ft 7 kts 307°
2026-04-25 11:42 4.70739 -74.15984 8373 ft 9 kts 307°
2026-04-25 11:43 4.70774 -74.16031 8372 ft 9 kts 307°
2026-04-25 11:43 4.70822 -74.16093 8374 ft 14 kts 308°
2026-04-25 11:43 4.70882 -74.16172 8373 ft 14 kts 307°
2026-04-25 11:43 4.70938 -74.16246 8372 ft 14 kts 307°
2026-04-25 11:44 4.71003 -74.16331 8373 ft 15 kts 307°
2026-04-25 11:44 4.71064 -74.16410 8373 ft 15 kts 307°
2026-04-25 11:44 4.71129 -74.16496 8372 ft 15 kts 307°
2026-04-25 11:44 4.71183 -74.16568 8372 ft 11 kts 307°
2026-04-25 11:45 4.71224 -74.16622 8373 ft 8 kts 307°
2026-04-25 11:45 4.71250 -74.16658 8373 ft 5 kts 307°
2026-04-25 11:45 4.71264 -74.16675 8373 ft 1 kts 307°
2026-04-25 11:45 4.71265 -74.16677 8373 ft 0 kts 307°
2026-04-25 11:46 4.71266 -74.16678 8371 ft 0 kts 307°
2026-04-25 11:46 4.71270 -74.16684 8373 ft 3 kts 307°
2026-04-25 11:47 4.71292 -74.16720 8369 ft 7 kts 289°
2026-04-25 11:47 4.71288 -74.16753 8371 ft 4 kts 247°
2026-04-25 11:47 4.71266 -74.16790 8373 ft 8 kts 246°
2026-04-25 11:47 4.71246 -74.16845 8372 ft 7 kts 243°
2026-04-25 11:48 4.71207 -74.16886 8371 ft 9 kts 212°
2026-04-25 11:48 4.71156 -74.16896 8373 ft 7 kts 178°
2026-04-25 11:48 4.71099 -74.16890 8373 ft 9 kts 174°
2026-04-25 11:48 4.71051 -74.16884 8373 ft 5 kts 170°
2026-04-25 11:49 4.71025 -74.16872 8373 ft 3 kts 144°
2026-04-25 11:49 4.71014 -74.16860 8373 ft 2 kts 131°
2026-04-25 11:49 4.71012 -74.16857 8373 ft 0 kts 129°
2026-04-25 11:49 4.71009 -74.16854 8374 ft 4 kts 129°
2026-04-25 11:50 4.70899 -74.16709 8373 ft 58 kts 127°
2026-04-25 11:50 4.70524 -74.16213 8374 ft 118 kts 127°
2026-04-25 11:50 4.69923 -74.15420 8374 ft 166 kts 127°
2026-04-25 11:50 4.69145 -74.14390 8440 ft 199 kts 127°
2026-04-25 11:51 4.68292 -74.13307 9179 ft 197 kts 135°
2026-04-25 11:51 4.67077 -74.12752 9809 ft 197 kts 179°
2026-04-25 11:51 4.65799 -74.13215 10079 ft 203 kts 223°
2026-04-25 11:51 4.65010 -74.14388 10400 ft 205 kts 242°
2026-04-25 11:52 4.64336 -74.15648 10620 ft 213 kts 242°
2026-04-25 11:52 4.63604 -74.17007 10743 ft 224 kts 242°
2026-04-25 11:52 4.62845 -74.18410 10865 ft 234 kts 242°
2026-04-25 11:52 4.62066 -74.19848 10984 ft 242 kts 242°
2026-04-25 11:53 4.61442 -74.21429 11207 ft 248 kts 258°
2026-04-25 11:53 4.61094 -74.23191 11314 ft 263 kts 259°
2026-04-25 11:53 4.60735 -74.25043 11455 ft 277 kts 259°
2026-04-25 11:53 4.60275 -74.26913 11754 ft 284 kts 247°
2026-04-25 11:54 4.59109 -74.28572 12016 ft 299 kts 226°
2026-04-25 11:54 4.57637 -74.30068 12554 ft 304 kts 226°
2026-04-25 11:54 4.54644 -74.33132 13748 ft 312 kts 225°
2026-04-25 11:55 4.52803 -74.34400 13877 ft 334 kts 202°
2026-04-25 11:55 4.50500 -74.34804 14366 ft 338 kts 177°
2026-04-25 11:55 4.48213 -74.34274 14967 ft 341 kts 155°
2026-04-25 11:55 4.46315 -74.32848 15479 ft 346 kts 129°
2026-04-25 11:56 4.45182 -74.30732 15995 ft 349 kts 104°
2026-04-25 11:56 4.45038 -74.28313 16519 ft 351 kts 79°
2026-04-25 11:56 4.45919 -74.26046 17047 ft 353 kts 56°
2026-04-25 11:56 4.47363 -74.24048 17590 ft 355 kts 52°
2026-04-25 11:57 4.48852 -74.22059 18143 ft 358 kts 52°
2026-04-25 11:57 4.50362 -74.20058 18679 ft 361 kts 52°
2026-04-25 11:57 4.51879 -74.18045 19146 ft 364 kts 52°
2026-04-25 11:57 4.53412 -74.16005 19472 ft 372 kts 52°
2026-04-25 11:58 4.54988 -74.13900 19684 ft 382 kts 52°
2026-04-25 11:58 4.56586 -74.11757 20062 ft 386 kts 52°
2026-04-25 11:58 4.58205 -74.09577 20303 ft 395 kts 53°
2026-04-25 11:58 4.59872 -74.07334 20428 ft 406 kts 52°
2026-04-25 11:59 4.61574 -74.05045 20590 ft 411 kts 53°
2026-04-25 11:59 4.63289 -74.02740 20977 ft 413 kts 52°
2026-04-25 11:59 4.65010 -74.00428 21372 ft 415 kts 53°
2026-04-25 12:00 4.68489 -73.95755 22071 ft 422 kts 52°
2026-04-25 12:00 4.70268 -73.93369 22194 ft 431 kts 52°
2026-04-25 12:00 4.73900 -73.88494 22435 ft 447 kts 53°
2026-04-25 12:01 4.75776 -73.85972 22559 ft 454 kts 53°
2026-04-25 12:01 4.77678 -73.83415 22690 ft 461 kts 53°
2026-04-25 12:01 4.79611 -73.80819 22813 ft 467 kts 53°
2026-04-25 12:01 4.81569 -73.78185 22916 ft 473 kts 53°
2026-04-25 12:02 4.85530 -73.72849 23299 ft 480 kts 53°
2026-04-25 12:02 4.87530 -73.70158 23558 ft 482 kts 53°
2026-04-25 12:02 4.89537 -73.67462 23816 ft 483 kts 53°
2026-04-25 12:03 4.91552 -73.64754 24008 ft 485 kts 53°
2026-04-25 12:03 4.93569 -73.62045 24249 ft 486 kts 53°
2026-04-25 12:03 4.95593 -73.59323 24479 ft 487 kts 53°
2026-04-25 12:03 4.97618 -73.56594 24707 ft 488 kts 53°
2026-04-25 12:04 4.99648 -73.53859 24906 ft 489 kts 53°
2026-04-25 12:04 5.01687 -73.51115 25102 ft 489 kts 53°
2026-04-25 12:04 5.03721 -73.48379 25384 ft 488 kts 53°
2026-04-25 12:04 5.05745 -73.45660 25888 ft 480 kts 53°
2026-04-25 12:05 5.07693 -73.43042 27074 ft 458 kts 54°
2026-04-25 12:05 5.09576 -73.40513 27865 ft 448 kts 54°
2026-04-25 12:05 5.11436 -73.38011 28398 ft 445 kts 54°
2026-04-25 12:05 5.13279 -73.35532 28835 ft 442 kts 55°
2026-04-25 12:06 5.15111 -73.33062 29250 ft 441 kts 55°
2026-04-25 12:06 5.16916 -73.30629 29644 ft 439 kts 55°
2026-04-25 12:06 5.18737 -73.28172 30042 ft 438 kts 55°
2026-04-25 12:06 5.20554 -73.25721 30412 ft 436 kts 55°
2026-04-25 12:07 5.22364 -73.23280 30753 ft 435 kts 55°
2026-04-25 12:07 5.24173 -73.20844 31055 ft 434 kts 56°
2026-04-25 12:07 5.25974 -73.18415 31412 ft 434 kts 56°
2026-04-25 12:07 5.27773 -73.15986 31750 ft 433 kts 56°
2026-04-25 12:08 5.29567 -73.13566 32080 ft 432 kts 56°
2026-04-25 12:08 5.31360 -73.11149 32402 ft 431 kts 56°
2026-04-25 12:08 5.33148 -73.08739 32695 ft 430 kts 56°
2026-04-25 12:08 5.34933 -73.06330 33016 ft 429 kts 56°
2026-04-25 12:09 5.36716 -73.03928 33325 ft 428 kts 57°
2026-04-25 12:09 5.38495 -73.01528 33627 ft 428 kts 57°
2026-04-25 12:09 5.40267 -72.99134 33992 ft 427 kts 57°
2026-04-25 12:09 5.42035 -72.96746 34297 ft 426 kts 57°
2026-04-25 12:10 5.43802 -72.94361 34558 ft 425 kts 57°
2026-04-25 12:10 5.45570 -72.91980 34834 ft 425 kts 56°
2026-04-25 12:10 5.47339 -72.89601 35047 ft 425 kts 57°
2026-04-25 12:10 5.49110 -72.87215 35116 ft 427 kts 57°
2026-04-25 12:11 5.52701 -72.82356 35132 ft 440 kts 57°
2026-04-25 12:11 5.56384 -72.77373 35139 ft 453 kts 56°
2026-04-25 12:12 5.59565 -72.73082 35136 ft 459 kts 56°
2026-04-25 12:12 5.64003 -72.67084 35111 ft 461 kts 56°
2026-04-25 12:13 5.67826 -72.61914 35135 ft 461 kts 56°
2026-04-25 12:13 5.71655 -72.56746 35135 ft 461 kts 56°
2026-04-25 12:14 5.75482 -72.51575 35087 ft 462 kts 56°
2026-04-25 12:14 5.79320 -72.46384 35081 ft 463 kts 56°
2026-04-25 12:15 5.83163 -72.41183 35106 ft 464 kts 56°
2026-04-25 12:15 5.87017 -72.35972 35071 ft 465 kts 56°
2026-04-25 12:16 5.90870 -72.30752 35081 ft 465 kts 56°
2026-04-25 12:16 5.94732 -72.25522 35069 ft 465 kts 56°
2026-04-25 12:17 5.98590 -72.20304 35073 ft 465 kts 56°
2026-04-25 12:17 6.02449 -72.15074 35078 ft 466 kts 56°
2026-04-25 12:18 6.06311 -72.09844 35042 ft 466 kts 56°
2026-04-25 12:18 6.10179 -72.04612 35073 ft 466 kts 56°
2026-04-25 12:19 6.15322 -71.97645 35037 ft 466 kts 57°
2026-04-25 12:20 6.19183 -71.92405 35029 ft 467 kts 57°
2026-04-25 12:20 6.23051 -71.87159 35050 ft 467 kts 56°
2026-04-25 12:21 6.26919 -71.81908 35026 ft 468 kts 56°
2026-04-25 12:21 6.30792 -71.76649 35024 ft 468 kts 56°
2026-04-25 12:22 6.34670 -71.71386 35015 ft 468 kts 56°
2026-04-25 12:22 6.38550 -71.66137 35014 ft 468 kts 56°
2026-04-25 12:23 6.42420 -71.60880 35019 ft 468 kts 56°
2026-04-25 12:23 6.46287 -71.55619 35004 ft 468 kts 56°
2026-04-25 12:24 6.50156 -71.50346 34979 ft 469 kts 56°
2026-04-25 12:24 6.54039 -71.45059 34977 ft 470 kts 56°
2026-04-25 12:25 6.57942 -71.39758 34967 ft 473 kts 56°
2026-04-25 12:25 6.61859 -71.34426 34966 ft 475 kts 56°
2026-04-25 12:26 6.65797 -71.29070 34971 ft 476 kts 55°
2026-04-25 12:26 6.69736 -71.23713 34970 ft 476 kts 56°
2026-04-25 12:27 6.73669 -71.18352 34973 ft 477 kts 56°
2026-04-25 12:27 6.77613 -71.12981 34984 ft 477 kts 55°
2026-04-25 12:28 6.81563 -71.07601 34992 ft 478 kts 56°
2026-04-25 12:28 6.85484 -71.02249 34998 ft 478 kts 56°
2026-04-25 12:29 6.89436 -70.96862 35001 ft 478 kts 55°
2026-04-25 12:29 6.93937 -70.91908 35003 ft 480 kts 48°
2026-04-25 12:30 6.98552 -70.87094 34997 ft 480 kts 47°
2026-04-25 12:30 7.03202 -70.82246 34986 ft 481 kts 47°
2026-04-25 12:31 7.07853 -70.77398 34994 ft 481 kts 47°
2026-04-25 12:31 7.12497 -70.72533 34994 ft 481 kts 47°
2026-04-25 12:32 7.17112 -70.67645 35015 ft 482 kts 48°
2026-04-25 12:32 7.21736 -70.62741 35010 ft 483 kts 48°
2026-04-25 12:33 7.26372 -70.57834 35001 ft 484 kts 48°
2026-04-25 12:33 7.31014 -70.52917 35005 ft 485 kts 48°
2026-04-25 12:34 7.35661 -70.47990 35012 ft 484 kts 48°
2026-04-25 12:34 7.40273 -70.43109 35010 ft 484 kts 48°
2026-04-25 12:35 7.44925 -70.38193 35016 ft 484 kts 48°
2026-04-25 12:35 7.49571 -70.33269 35015 ft 484 kts 48°
2026-04-25 12:36 7.54210 -70.28341 35015 ft 484 kts 48°
2026-04-25 12:36 7.58856 -70.23417 35015 ft 484 kts 48°
2026-04-25 12:37 7.63498 -70.18502 35013 ft 484 kts 47°
2026-04-25 12:37 7.68143 -70.13572 35013 ft 484 kts 47°
2026-04-25 12:38 7.72782 -70.08644 35014 ft 484 kts 47°
2026-04-25 12:38 7.77401 -70.03744 35014 ft 484 kts 47°
2026-04-25 12:39 7.82036 -69.98826 35010 ft 484 kts 47°
2026-04-25 12:39 7.86681 -69.93884 35016 ft 484 kts 47°
2026-04-25 12:40 7.91317 -69.88952 35011 ft 485 kts 47°
2026-04-25 12:40 7.95959 -69.84014 35008 ft 485 kts 47°
2026-04-25 12:41 8.00574 -69.79094 35000 ft 485 kts 47°
2026-04-25 12:41 8.05226 -69.74142 35000 ft 486 kts 47°
2026-04-25 12:42 8.09882 -69.69195 35002 ft 486 kts 47°
2026-04-25 12:42 8.14540 -69.64237 35011 ft 486 kts 47°
2026-04-25 12:43 8.19194 -69.59280 35014 ft 486 kts 48°
2026-04-25 12:43 8.26177 -69.51830 35013 ft 486 kts 47°
2026-04-25 12:44 8.30837 -69.46869 35006 ft 487 kts 47°
2026-04-25 12:45 8.37815 -69.39414 35004 ft 487 kts 47°
2026-04-25 12:45 8.44799 -69.31961 35004 ft 486 kts 47°
2026-04-25 12:46 8.49430 -69.27023 34997 ft 486 kts 47°
2026-04-25 12:46 8.54078 -69.22057 34993 ft 486 kts 47°
2026-04-25 12:47 8.58719 -69.17087 34990 ft 487 kts 48°
2026-04-25 12:47 8.63374 -69.12100 34981 ft 487 kts 47°
2026-04-25 12:48 8.68043 -69.07120 34987 ft 488 kts 47°
2026-04-25 12:48 8.72715 -69.02131 34987 ft 489 kts 47°
2026-04-25 12:49 8.77391 -68.97128 34991 ft 489 kts 47°
2026-04-25 12:49 8.82057 -68.92126 34997 ft 489 kts 48°
2026-04-25 12:50 8.86698 -68.87148 35006 ft 489 kts 47°
2026-04-25 12:50 8.91376 -68.82133 35006 ft 489 kts 47°
2026-04-25 12:51 8.96051 -68.77119 35005 ft 490 kts 47°
2026-04-25 12:51 9.00732 -68.72102 35002 ft 490 kts 47°
2026-04-25 12:52 9.05414 -68.67090 35007 ft 490 kts 47°
2026-04-25 12:52 9.10088 -68.62070 35010 ft 490 kts 47°
2026-04-25 12:53 9.14733 -68.57073 35018 ft 491 kts 47°
2026-04-25 12:53 9.19420 -68.52043 35014 ft 491 kts 47°
2026-04-25 12:54 9.24103 -68.47009 35008 ft 491 kts 47°
2026-04-25 12:54 9.28799 -68.41959 35009 ft 492 kts 47°
2026-04-25 12:55 9.31939 -68.38587 35015 ft 492 kts 47°
2026-04-25 12:55 9.38179 -68.31868 35009 ft 492 kts 47°
2026-04-25 12:56 9.42869 -68.26827 35017 ft 492 kts 47°
2026-04-25 12:56 9.47553 -68.21785 35016 ft 491 kts 48°
2026-04-25 12:57 9.52242 -68.16728 35006 ft 492 kts 47°
2026-04-25 12:57 9.56944 -68.11663 35000 ft 493 kts 47°
2026-04-25 12:58 9.61653 -68.06588 35012 ft 494 kts 47°
2026-04-25 12:58 9.66358 -68.01512 35010 ft 494 kts 47°
2026-04-25 12:59 9.71038 -67.96463 35022 ft 494 kts 48°
2026-04-25 12:59 9.75745 -67.91375 35026 ft 494 kts 48°
2026-04-25 13:00 9.78891 -67.87975 35023 ft 494 kts 48°
2026-04-25 13:00 9.85151 -67.81202 35036 ft 495 kts 47°
2026-04-25 13:01 9.89063 -67.76973 35041 ft 494 kts 47°
2026-04-25 13:01 9.93773 -67.71887 35043 ft 494 kts 47°
2026-04-25 13:02 9.98479 -67.66797 35043 ft 494 kts 48°
2026-04-25 13:02 10.03172 -67.61705 35039 ft 494 kts 47°
2026-04-25 13:03 10.07868 -67.56616 35038 ft 494 kts 47°
2026-04-25 13:03 10.12574 -67.51523 35038 ft 495 kts 48°
2026-04-25 13:04 10.17285 -67.46415 35030 ft 495 kts 48°
2026-04-25 13:04 10.21995 -67.41303 35011 ft 496 kts 48°
2026-04-25 13:05 10.26717 -67.36187 35018 ft 496 kts 48°
2026-04-25 13:05 10.31437 -67.31065 35024 ft 496 kts 48°
2026-04-25 13:06 10.36154 -67.25935 35032 ft 497 kts 48°
2026-04-25 13:06 10.40874 -67.20809 35039 ft 497 kts 48°
2026-04-25 13:07 10.45580 -67.15697 35031 ft 498 kts 48°
2026-04-25 13:07 10.50313 -67.10549 35038 ft 499 kts 48°
2026-04-25 13:08 10.55050 -67.05392 34958 ft 499 kts 48°
2026-04-25 13:08 10.59784 -67.00233 34955 ft 499 kts 49°
2026-04-25 13:09 10.61939 -66.97468 35088 ft 497 kts 57°
2026-04-25 13:09 10.63870 -66.94556 35313 ft 496 kts 57°
2026-04-25 13:09 10.65804 -66.91649 35535 ft 496 kts 57°
2026-04-25 13:09 10.67737 -66.88752 35774 ft 495 kts 57°
2026-04-25 13:10 10.69670 -66.85854 35985 ft 495 kts 57°
2026-04-25 13:10 10.71600 -66.82955 36223 ft 495 kts 58°
2026-04-25 13:10 10.73527 -66.80055 36428 ft 494 kts 58°
2026-04-25 13:10 10.75450 -66.77158 36628 ft 494 kts 58°
2026-04-25 13:11 10.77373 -66.74262 36788 ft 494 kts 58°
2026-04-25 13:11 10.79298 -66.71363 36961 ft 495 kts 58°
2026-04-25 13:11 10.83151 -66.65551 36974 ft 495 kts 58°
2026-04-25 13:12 10.86972 -66.59777 36974 ft 495 kts 58°
2026-04-25 13:12 10.90203 -66.54907 36975 ft 495 kts 58°
2026-04-25 13:13 10.94679 -66.48154 36969 ft 495 kts 58°
2026-04-25 13:13 10.98529 -66.42339 36972 ft 496 kts 58°
2026-04-25 13:14 11.02386 -66.36516 36984 ft 496 kts 58°
2026-04-25 13:14 11.06275 -66.30712 36983 ft 496 kts 57°
2026-04-25 13:15 11.10225 -66.24940 36985 ft 496 kts 57°
2026-04-25 13:15 11.14179 -66.19171 36983 ft 496 kts 57°
2026-04-25 13:16 11.18122 -66.13376 36990 ft 497 kts 57°
2026-04-25 13:16 11.22013 -66.07619 36989 ft 497 kts 57°
2026-04-25 13:17 11.25938 -66.01820 36988 ft 496 kts 57°
2026-04-25 13:17 11.29863 -65.96034 36990 ft 496 kts 57°
2026-04-25 13:18 11.33797 -65.90241 36985 ft 497 kts 57°
2026-04-25 13:18 11.37721 -65.84440 36989 ft 497 kts 57°
2026-04-25 13:19 11.41649 -65.78630 36991 ft 498 kts 57°
2026-04-25 13:19 11.44924 -65.73797 36992 ft 498 kts 57°
2026-04-25 13:20 11.49527 -65.66996 36991 ft 498 kts 57°
2026-04-25 13:20 11.53456 -65.61167 36994 ft 498 kts 57°
2026-04-25 13:21 11.57363 -65.55378 36987 ft 499 kts 57°
2026-04-25 13:21 11.61310 -65.49528 36988 ft 500 kts 57°
2026-04-25 13:22 11.65253 -65.43680 36994 ft 500 kts 57°
2026-04-25 13:23 11.71208 -65.34912 36994 ft 501 kts 56°
2026-04-25 13:23 11.75252 -65.29113 36997 ft 502 kts 56°
2026-04-25 13:24 11.79292 -65.23299 36993 ft 502 kts 56°
2026-04-25 13:24 11.83315 -65.17467 36994 ft 502 kts 56°
2026-04-25 13:25 11.87314 -65.11663 37003 ft 503 kts 56°
2026-04-25 13:25 11.91349 -65.05818 36997 ft 503 kts 56°
2026-04-25 13:26 11.95376 -64.99977 37002 ft 503 kts 56°
2026-04-25 13:26 11.99404 -64.94128 36997 ft 503 kts 57°
2026-04-25 13:27 12.03421 -64.88282 37004 ft 503 kts 57°
2026-04-25 13:27 12.07449 -64.82436 37001 ft 503 kts 56°
2026-04-25 13:28 12.11471 -64.76587 37003 ft 503 kts 56°
2026-04-25 13:28 12.15491 -64.70745 37005 ft 502 kts 57°
2026-04-25 13:29 12.19499 -64.64903 37010 ft 502 kts 57°
2026-04-25 13:29 12.23503 -64.59055 37011 ft 502 kts 57°
2026-04-25 13:30 12.29517 -64.50281 37009 ft 502 kts 57°
2026-04-25 13:31 12.35532 -64.41512 37010 ft 502 kts 57°
2026-04-25 13:31 12.39527 -64.35653 37007 ft 502 kts 57°
2026-04-25 13:32 12.43481 -64.29770 37009 ft 502 kts 57°
2026-04-25 13:32 12.47432 -64.23884 37013 ft 501 kts 57°
2026-04-25 13:33 12.51392 -64.18011 37009 ft 501 kts 57°
2026-04-25 13:33 12.55353 -64.12136 37004 ft 502 kts 57°
2026-04-25 13:34 12.59317 -64.06255 37008 ft 502 kts 57°
2026-04-25 13:34 12.63274 -64.00370 37006 ft 502 kts 57°
2026-04-25 13:35 12.67223 -63.94477 37014 ft 502 kts 57°
2026-04-25 13:35 12.71156 -63.88630 37013 ft 501 kts 57°
2026-04-25 13:36 12.75107 -63.82740 37018 ft 501 kts 57°
2026-04-25 13:36 12.79058 -63.76857 37015 ft 501 kts 57°
2026-04-25 13:37 12.83006 -63.70974 37015 ft 501 kts 57°
2026-04-25 13:37 12.86988 -63.65104 37013 ft 502 kts 53°
2026-04-25 13:38 12.91428 -63.59565 37015 ft 503 kts 52°
2026-04-25 13:38 12.95872 -63.54029 37011 ft 503 kts 52°
2026-04-25 13:39 13.00320 -63.48484 37010 ft 503 kts 52°
2026-04-25 13:39 13.04760 -63.42942 37014 ft 503 kts 52°
2026-04-25 13:40 13.09205 -63.37400 37010 ft 503 kts 52°
2026-04-25 13:40 13.13648 -63.31860 37012 ft 503 kts 52°
2026-04-25 13:41 13.18088 -63.26312 37011 ft 503 kts 52°
2026-04-25 13:41 13.22531 -63.20760 37011 ft 503 kts 52°
2026-04-25 13:42 13.26974 -63.15201 37015 ft 504 kts 52°
2026-04-25 13:42 13.30665 -63.10582 37005 ft 504 kts 52°
2026-04-25 13:43 13.35111 -63.05021 37013 ft 503 kts 52°
2026-04-25 13:43 13.40282 -62.98559 37012 ft 504 kts 52°
2026-04-25 13:44 13.44008 -62.93897 37006 ft 504 kts 52°
2026-04-25 13:44 13.48450 -62.88324 37009 ft 504 kts 52°
2026-04-25 13:45 13.52147 -62.83687 37011 ft 504 kts 52°
2026-04-25 13:45 13.57336 -62.77148 37006 ft 505 kts 52°
2026-04-25 13:46 13.61781 -62.71554 37013 ft 505 kts 52°
2026-04-25 13:46 13.66210 -62.65999 37018 ft 506 kts 52°
2026-04-25 13:47 13.70664 -62.60397 37015 ft 506 kts 52°
2026-04-25 13:47 13.75117 -62.54793 37014 ft 506 kts 52°
2026-04-25 13:48 13.79571 -62.49179 37010 ft 507 kts 52°
2026-04-25 13:48 13.84031 -62.43556 37010 ft 508 kts 52°
2026-04-25 13:49 13.88502 -62.37920 37011 ft 509 kts 52°
2026-04-25 13:49 13.92977 -62.32263 37016 ft 509 kts 52°
2026-04-25 13:50 13.97455 -62.26607 37021 ft 510 kts 52°
2026-04-25 13:50 14.01942 -62.20949 37024 ft 510 kts 52°
2026-04-25 13:51 14.06422 -62.15283 37017 ft 510 kts 52°
2026-04-25 13:51 14.10900 -62.09609 37017 ft 510 kts 52°
2026-04-25 13:52 14.15377 -62.03931 37015 ft 510 kts 52°
2026-04-25 13:52 14.19855 -61.98252 37016 ft 511 kts 52°
2026-04-25 13:53 14.24337 -61.92567 37021 ft 511 kts 52°
2026-04-25 13:53 14.28818 -61.86879 37020 ft 511 kts 52°
2026-04-25 13:54 14.33301 -61.81188 37018 ft 511 kts 52°
2026-04-25 13:54 14.37781 -61.75486 37019 ft 511 kts 52°
2026-04-25 13:55 14.42232 -61.69821 37020 ft 511 kts 52°
2026-04-25 13:55 14.46711 -61.64116 37020 ft 511 kts 52°
2026-04-25 13:56 14.51189 -61.58417 37021 ft 511 kts 52°
2026-04-25 13:56 14.55676 -61.52698 37017 ft 512 kts 52°
2026-04-25 13:57 14.60156 -61.46981 37016 ft 512 kts 52°
2026-04-25 13:57 14.64638 -61.41257 37021 ft 513 kts 52°
2026-04-25 13:58 14.69123 -61.35525 37021 ft 513 kts 52°
2026-04-25 13:58 14.73610 -61.29792 37021 ft 513 kts 52°
2026-04-25 13:59 14.78092 -61.24056 37029 ft 513 kts 52°
2026-04-25 13:59 14.82568 -61.18319 37026 ft 513 kts 52°
2026-04-25 14:00 14.86293 -61.13549 37023 ft 512 kts 52°
2026-04-25 14:00 14.91505 -61.06873 37025 ft 513 kts 52°
2026-04-25 14:01 14.95982 -61.01134 37026 ft 513 kts 52°
2026-04-25 14:01 15.00449 -60.95387 37029 ft 513 kts 52°
2026-04-25 14:02 15.04919 -60.89635 37035 ft 513 kts 52°
2026-04-25 14:02 15.09391 -60.83883 37030 ft 513 kts 52°
2026-04-25 14:03 15.13856 -60.78134 37028 ft 512 kts 52°
2026-04-25 14:03 15.18321 -60.72382 37022 ft 512 kts 52°
2026-04-25 14:04 15.22776 -60.66637 37025 ft 512 kts 52°
2026-04-25 14:04 15.27232 -60.60889 37031 ft 512 kts 51°
2026-04-25 14:05 15.31697 -60.55130 37021 ft 513 kts 51°
2026-04-25 14:05 15.36164 -60.49362 37019 ft 514 kts 52°
2026-04-25 14:06 15.40636 -60.43575 37015 ft 514 kts 51°
2026-04-25 14:06 15.45109 -60.37788 37024 ft 514 kts 52°
2026-04-25 14:07 15.49581 -60.31995 37031 ft 515 kts 52°
2026-04-25 14:07 15.54061 -60.26190 37039 ft 515 kts 51°
2026-04-25 14:08 15.58542 -60.20388 37036 ft 516 kts 51°
2026-04-25 14:08 15.63031 -60.14567 37032 ft 516 kts 51°
2026-04-25 14:09 15.67509 -60.08750 37034 ft 516 kts 51°
2026-04-25 14:09 15.71983 -60.02923 37033 ft 516 kts 51°
2026-04-25 14:10 15.76429 -59.97138 37034 ft 516 kts 51°
2026-04-25 14:10 15.80901 -59.91316 37032 ft 516 kts 51°
2026-04-25 14:11 15.85377 -59.85489 37033 ft 515 kts 51°
2026-04-25 14:11 15.89842 -59.79666 37032 ft 515 kts 51°
2026-04-25 14:12 15.94301 -59.73835 37032 ft 515 kts 52°
2026-04-25 14:12 15.98759 -59.68010 37032 ft 515 kts 51°
2026-04-25 14:13 16.03215 -59.62181 37030 ft 515 kts 52°
2026-04-25 14:13 16.07675 -59.56353 37036 ft 515 kts 51°
2026-04-25 14:14 16.12135 -59.50514 37034 ft 515 kts 51°
2026-04-25 14:14 16.16593 -59.44664 37036 ft 516 kts 52°
2026-04-25 14:15 16.21030 -59.38842 37036 ft 516 kts 51°
2026-04-25 14:15 16.25493 -59.32987 37038 ft 516 kts 51°
2026-04-25 14:16 16.29959 -59.27133 37052 ft 516 kts 51°
2026-04-25 14:16 16.34424 -59.21269 37046 ft 517 kts 51°
2026-04-25 14:17 16.38883 -59.15394 37045 ft 517 kts 51°
2026-04-25 14:17 16.43347 -59.09508 37043 ft 517 kts 51°
2026-04-25 14:18 16.47812 -59.03616 37047 ft 518 kts 51°
2026-04-25 14:18 16.52289 -58.97733 37051 ft 518 kts 51°
2026-04-25 14:19 16.56732 -58.91886 37053 ft 518 kts 51°
2026-04-25 14:19 16.61199 -58.85977 37049 ft 518 kts 51°
2026-04-25 14:20 16.65659 -58.80066 37044 ft 518 kts 51°
2026-04-25 14:20 16.70118 -58.74167 37041 ft 518 kts 51°
2026-04-25 14:21 16.74578 -58.68259 37043 ft 518 kts 51°
2026-04-25 14:21 16.79034 -58.62350 37049 ft 518 kts 51°
2026-04-25 14:22 16.83491 -58.56434 37043 ft 518 kts 51°
2026-04-25 14:22 16.87946 -58.50511 37041 ft 519 kts 51°
2026-04-25 14:23 16.92407 -58.44593 37036 ft 518 kts 51°
2026-04-25 14:23 16.96867 -58.38673 37049 ft 518 kts 51°
2026-04-25 14:24 17.01313 -58.32746 37052 ft 518 kts 51°
2026-04-25 14:24 17.05011 -58.27815 37066 ft 518 kts 51°
2026-04-25 14:25 17.09462 -58.21877 37052 ft 519 kts 51°
2026-04-25 14:25 17.13923 -58.15937 37057 ft 519 kts 51°
2026-04-25 14:26 17.18380 -58.09986 37060 ft 519 kts 51°
2026-04-25 14:26 17.22833 -58.04025 37052 ft 520 kts 51°
2026-04-25 14:27 17.27290 -57.98065 37068 ft 520 kts 51°
2026-04-25 14:27 17.31754 -57.92093 37061 ft 521 kts 51°
2026-04-25 14:28 17.36215 -57.86114 37067 ft 521 kts 51°
2026-04-25 14:28 17.40667 -57.80130 37065 ft 521 kts 51°
2026-04-25 14:29 17.45095 -57.74184 37053 ft 521 kts 51°
2026-04-25 14:29 17.49542 -57.68207 37064 ft 520 kts 51°
2026-04-25 14:30 17.53989 -57.62227 37059 ft 520 kts 51°
2026-04-25 14:30 17.58440 -57.56243 37500 ft 519 kts 51°
2026-04-25 14:30 17.60660 -57.53253 37711 ft 519 kts 52°
2026-04-25 14:31 17.62871 -57.50271 37915 ft 519 kts 52°
2026-04-25 14:31 17.65084 -57.47282 38109 ft 518 kts 52°
2026-04-25 14:31 17.67293 -57.44299 38299 ft 518 kts 52°
2026-04-25 14:31 17.69500 -57.41313 38484 ft 517 kts 52°
2026-04-25 14:32 17.71710 -57.38328 38665 ft 517 kts 52°
2026-04-25 14:32 17.73916 -57.35356 38835 ft 516 kts 51°
2026-04-25 14:32 17.76117 -57.32384 38999 ft 516 kts 51°
2026-04-25 14:32 17.78321 -57.29405 39043 ft 517 kts 51°
2026-04-25 14:33 17.82732 -57.23425 39044 ft 518 kts 51°
2026-04-25 14:33 17.87143 -57.17445 39042 ft 518 kts 51°
2026-04-25 14:34 17.91554 -57.11471 39040 ft 517 kts 51°
2026-04-25 14:34 17.95928 -57.05540 39054 ft 516 kts 51°
2026-04-25 14:35 18.00168 -56.99449 39051 ft 518 kts 60°
2026-04-25 14:35 18.03353 -56.92659 39049 ft 518 kts 65°
2026-04-25 14:36 18.06453 -56.85803 39059 ft 519 kts 65°
2026-04-25 14:36 18.09570 -56.78952 39062 ft 520 kts 65°
2026-04-25 14:37 18.12692 -56.72083 39065 ft 520 kts 65°
2026-04-25 14:37 18.15805 -56.65218 39067 ft 520 kts 65°
2026-04-25 14:38 18.18912 -56.58346 39068 ft 520 kts 65°
2026-04-25 14:38 18.21996 -56.51517 39071 ft 520 kts 65°
2026-04-25 14:39 18.25105 -56.44635 39072 ft 520 kts 65°
2026-04-25 14:39 18.28211 -56.37758 39070 ft 520 kts 65°
2026-04-25 14:40 18.31309 -56.30879 39075 ft 520 kts 65°
2026-04-25 14:40 18.34403 -56.24003 39074 ft 519 kts 65°
2026-04-25 14:41 18.37497 -56.17126 39083 ft 519 kts 65°
2026-04-25 14:41 18.40591 -56.10240 39077 ft 520 kts 65°
2026-04-25 14:42 18.43155 -56.04519 39075 ft 520 kts 65°
2026-04-25 14:42 18.46764 -55.96447 39075 ft 521 kts 65°
2026-04-25 14:43 18.49836 -55.89578 39075 ft 521 kts 65°
2026-04-25 14:43 18.52926 -55.82664 39075 ft 521 kts 65°
2026-04-25 14:44 18.56011 -55.75758 39075 ft 521 kts 65°
2026-04-25 14:44 18.59088 -55.68853 39081 ft 521 kts 65°
2026-04-25 14:45 18.62173 -55.61932 39078 ft 521 kts 65°
2026-04-25 14:45 18.65255 -55.55007 39074 ft 522 kts 65°
2026-04-25 14:46 18.68334 -55.48070 39076 ft 521 kts 65°
2026-04-25 14:46 18.71389 -55.41186 39076 ft 521 kts 65°
2026-04-25 14:47 18.73954 -55.35380 39076 ft 521 kts 65°
2026-04-25 14:47 18.77513 -55.27328 39093 ft 521 kts 65°
2026-04-25 14:48 18.80587 -55.20395 39081 ft 522 kts 65°
2026-04-25 14:48 18.83661 -55.13459 39076 ft 522 kts 65°
2026-04-25 14:49 18.86725 -55.06500 39081 ft 522 kts 65°
2026-04-25 14:49 18.89784 -54.99547 39077 ft 522 kts 65°
2026-04-25 14:50 18.92850 -54.92594 39085 ft 522 kts 65°
2026-04-25 14:50 18.95887 -54.85680 39101 ft 522 kts 65°
2026-04-25 14:51 18.98938 -54.78710 39083 ft 522 kts 65°
2026-04-25 14:51 19.01994 -54.71742 39079 ft 523 kts 65°
2026-04-25 14:52 19.05058 -54.64772 39083 ft 523 kts 65°
2026-04-25 14:52 19.07596 -54.58974 39083 ft 523 kts 65°
2026-04-25 14:53 19.11155 -54.50815 39078 ft 523 kts 65°
2026-04-25 14:53 19.14198 -54.43841 39103 ft 522 kts 65°
2026-04-25 14:54 19.17237 -54.36863 39086 ft 522 kts 65°
2026-04-25 14:54 19.20271 -54.29873 39085 ft 523 kts 65°
2026-04-25 14:55 19.23309 -54.22877 39082 ft 523 kts 65°
2026-04-25 14:55 19.26355 -54.15885 39095 ft 523 kts 65°
2026-04-25 14:56 19.29390 -54.08887 39090 ft 523 kts 65°
2026-04-25 14:56 19.32421 -54.01884 39107 ft 523 kts 65°
2026-04-25 14:57 19.35452 -53.94877 39084 ft 523 kts 65°
2026-04-25 14:57 19.38480 -53.87861 39094 ft 523 kts 65°
2026-04-25 14:58 19.41484 -53.80886 39088 ft 524 kts 65°
2026-04-25 14:58 19.44513 -53.73864 39082 ft 524 kts 65°
2026-04-25 14:59 19.47539 -53.66838 39098 ft 524 kts 65°
2026-04-25 14:59 19.50561 -53.59813 39108 ft 524 kts 65°
2026-04-25 15:00 19.53580 -53.52778 39093 ft 525 kts 65°
2026-04-25 15:00 19.56604 -53.45728 39094 ft 525 kts 65°
2026-04-25 15:01 19.59627 -53.38669 39091 ft 525 kts 65°
2026-04-25 15:01 19.62645 -53.31602 39089 ft 526 kts 65°
2026-04-25 15:02 19.65638 -53.24570 39084 ft 526 kts 65°
2026-04-25 15:02 19.68651 -53.17506 39099 ft 525 kts 65°
2026-04-25 15:03 19.71669 -53.10432 39099 ft 526 kts 65°
2026-04-25 15:03 19.74685 -53.03354 39093 ft 527 kts 65°
2026-04-25 15:04 19.77695 -52.96253 39093 ft 527 kts 65°
2026-04-25 15:04 19.80690 -52.89179 39095 ft 527 kts 65°
2026-04-25 15:05 19.83694 -52.82075 39093 ft 527 kts 65°
2026-04-25 15:06 19.88195 -52.71463 39099 ft 527 kts 65°
2026-04-25 15:06 19.91201 -52.64359 39099 ft 527 kts 65°
2026-04-25 15:07 19.94198 -52.57254 39091 ft 527 kts 65°
2026-04-25 15:07 19.96705 -52.51297 39092 ft 527 kts 65°
2026-04-25 15:08 19.99696 -52.44192 39094 ft 526 kts 65°
2026-04-25 15:08 20.02659 -52.37122 39094 ft 526 kts 65°
2026-04-25 15:09 20.05647 -52.30005 39097 ft 526 kts 65°
2026-04-25 15:09 20.10117 -52.19346 39095 ft 525 kts 65°
2026-04-25 15:10 20.13094 -52.12244 39094 ft 525 kts 65°
2026-04-25 15:11 20.17542 -52.01588 39092 ft 524 kts 65°
2026-04-25 15:11 20.20492 -51.94485 39093 ft 525 kts 65°
2026-04-25 15:12 20.24930 -51.83824 39092 ft 525 kts 65°
2026-04-25 15:12 20.27384 -51.77909 39095 ft 526 kts 65°
2026-04-25 15:13 20.32312 -51.66040 39096 ft 526 kts 65°
2026-04-25 15:14 20.35264 -51.58907 39100 ft 526 kts 65°
2026-04-25 15:14 20.38211 -51.51755 39095 ft 527 kts 65°
2026-04-25 15:15 20.41166 -51.44607 39096 ft 527 kts 65°
2026-04-25 15:15 20.44125 -51.37444 39101 ft 528 kts 65°
2026-04-25 15:16 20.47043 -51.30349 39093 ft 528 kts 65°
2026-04-25 15:16 20.51470 -51.19590 39109 ft 528 kts 65°
2026-04-25 15:17 20.55886 -51.08810 39102 ft 529 kts 65°
2026-04-25 15:18 20.58832 -51.01622 39097 ft 529 kts 65°
2026-04-25 15:18 20.63250 -50.90824 39099 ft 529 kts 65°
2026-04-25 15:19 20.65688 -50.84839 39099 ft 529 kts 65°
2026-04-25 15:19 20.69127 -50.76407 39107 ft 529 kts 65°
2026-04-25 15:20 20.72067 -50.69193 39107 ft 530 kts 65°
2026-04-25 15:20 20.75006 -50.61966 39099 ft 530 kts 65°
2026-04-25 15:21 20.77920 -50.54777 39103 ft 530 kts 65°
2026-04-25 15:21 20.80841 -50.47540 39103 ft 530 kts 65°
2026-04-25 15:22 20.83762 -50.40309 39108 ft 530 kts 65°
2026-04-25 15:22 20.86691 -50.33071 39104 ft 531 kts 65°
2026-04-25 15:23 20.89632 -50.25806 39102 ft 531 kts 65°
2026-04-25 15:23 20.92562 -50.18537 39094 ft 531 kts 65°
2026-04-25 15:24 20.95457 -50.11333 39100 ft 531 kts 65°
2026-04-25 15:24 20.97897 -50.05255 39116 ft 530 kts 65°
2026-04-25 15:25 21.00799 -49.96624 39100 ft 532 kts 75°
2026-04-25 15:25 21.02580 -49.88915 39099 ft 533 kts 75°
2026-04-25 15:26 21.04374 -49.81213 39099 ft 533 kts 75°
2026-04-25 15:26 21.06167 -49.73490 39099 ft 534 kts 76°
2026-04-25 15:27 21.07936 -49.65815 39103 ft 534 kts 76°
2026-04-25 15:28 21.10604 -49.54230 39111 ft 534 kts 75°
2026-04-25 15:28 21.12379 -49.46502 39107 ft 535 kts 75°
2026-04-25 15:29 21.14160 -49.38752 39106 ft 535 kts 75°
2026-04-25 15:29 21.15935 -49.31007 39110 ft 535 kts 75°
2026-04-25 15:30 21.17696 -49.23262 39108 ft 535 kts 76°
2026-04-25 15:30 21.19457 -49.15512 39109 ft 535 kts 76°
2026-04-25 15:31 21.21226 -49.07748 39121 ft 535 kts 75°
2026-04-25 15:31 21.22994 -48.99998 39112 ft 535 kts 75°
2026-04-25 15:32 21.24749 -48.92251 39111 ft 534 kts 75°
2026-04-25 15:32 21.26491 -48.84505 39110 ft 534 kts 75°
2026-04-25 15:33 21.29092 -48.72934 39111 ft 534 kts 75°
2026-04-25 15:33 21.30824 -48.65201 39105 ft 533 kts 75°
2026-04-25 15:34 21.32554 -48.57461 39119 ft 533 kts 75°
2026-04-25 15:34 21.33710 -48.52292 39120 ft 531 kts 75°
2026-04-25 15:35 21.36836 -48.38257 39108 ft 529 kts 75°
2026-04-25 15:36 21.39408 -48.26742 39110 ft 529 kts 75°
2026-04-25 15:36 21.41115 -48.19045 39109 ft 529 kts 75°
2026-04-25 15:37 21.42805 -48.11357 39112 ft 530 kts 75°
2026-04-25 15:37 21.44496 -48.03661 39113 ft 530 kts 75°
2026-04-25 15:38 21.46203 -47.95958 39110 ft 530 kts 75°
2026-04-25 15:38 21.47899 -47.88241 39113 ft 531 kts 75°
2026-04-25 15:39 21.49581 -47.80524 39109 ft 531 kts 76°
2026-04-25 15:39 21.51263 -47.72808 39106 ft 531 kts 76°
2026-04-25 15:40 21.52377 -47.67690 39128 ft 531 kts 75°
2026-04-25 15:40 21.54624 -47.57360 39115 ft 530 kts 75°
2026-04-25 15:41 21.56302 -47.49648 39120 ft 530 kts 75°
2026-04-25 15:41 21.57967 -47.41984 39118 ft 530 kts 75°
2026-04-25 15:42 21.59629 -47.34264 39115 ft 530 kts 75°
2026-04-25 15:42 21.61281 -47.26541 39118 ft 530 kts 75°
2026-04-25 15:43 21.62929 -47.18817 39130 ft 530 kts 75°
2026-04-25 15:43 21.64587 -47.11095 39123 ft 529 kts 75°
2026-04-25 15:44 21.66250 -47.03386 39119 ft 529 kts 75°
2026-04-25 15:44 21.67899 -46.95671 39112 ft 529 kts 75°
2026-04-25 15:45 21.69537 -46.87962 39115 ft 529 kts 75°
2026-04-25 15:45 21.70618 -46.82845 39116 ft 529 kts 75°
2026-04-25 15:46 21.72813 -46.72511 39124 ft 530 kts 75°
2026-04-25 15:46 21.74173 -46.66085 39126 ft 530 kts 75°
2026-04-25 15:47 21.75798 -46.58344 39118 ft 531 kts 75°
2026-04-25 15:47 21.77429 -46.50592 39114 ft 531 kts 75°
2026-04-25 15:48 21.79059 -46.42834 39116 ft 532 kts 75°
2026-04-25 15:48 21.80681 -46.35066 39116 ft 532 kts 75°
2026-04-25 15:49 21.82299 -46.27295 39127 ft 533 kts 76°
2026-04-25 15:49 21.83929 -46.19507 39121 ft 534 kts 76°
2026-04-25 15:50 21.85553 -46.11697 39115 ft 534 kts 76°
2026-04-25 15:50 21.87164 -46.03881 39123 ft 535 kts 76°
2026-04-25 15:51 21.88504 -45.97378 39127 ft 535 kts 76°
2026-04-25 15:51 21.90382 -45.88291 39151 ft 534 kts 76°
2026-04-25 15:52 21.91988 -45.80473 39127 ft 535 kts 76°
2026-04-25 15:52 21.93595 -45.72644 39128 ft 535 kts 76°
2026-04-25 15:53 21.95205 -45.64804 39122 ft 535 kts 76°
2026-04-25 15:53 21.96809 -45.56973 39117 ft 535 kts 76°
2026-04-25 15:54 21.98400 -45.49139 39123 ft 535 kts 76°
2026-04-25 15:54 21.99988 -45.41304 39133 ft 535 kts 76°
2026-04-25 15:55 22.01569 -45.33514 39121 ft 535 kts 76°
2026-04-25 15:55 22.03149 -45.25671 39117 ft 535 kts 76°
2026-04-25 15:56 22.04728 -45.17827 39117 ft 535 kts 76°
2026-04-25 15:56 22.06309 -45.09994 39120 ft 535 kts 76°
2026-04-25 15:57 22.07883 -45.02157 39128 ft 535 kts 76°
2026-04-25 15:57 22.09447 -44.94313 39118 ft 535 kts 76°
2026-04-25 15:58 22.11010 -44.86461 39114 ft 535 kts 76°
2026-04-25 15:58 22.12577 -44.78613 39119 ft 535 kts 76°
2026-04-25 15:59 22.14134 -44.70768 39118 ft 535 kts 76°
2026-04-25 15:59 22.15678 -44.62906 39122 ft 535 kts 76°
2026-04-25 16:00 22.16711 -44.57650 39128 ft 535 kts 76°
2026-04-25 16:00 22.18777 -44.47177 39126 ft 536 kts 76°
2026-04-25 16:01 22.20326 -44.39311 39127 ft 536 kts 76°
2026-04-25 16:01 22.21873 -44.31428 39125 ft 537 kts 76°
2026-04-25 16:02 22.23412 -44.23550 39127 ft 537 kts 76°
2026-04-25 16:02 22.24948 -44.15659 39128 ft 537 kts 76°
2026-04-25 16:03 22.26475 -44.07761 39126 ft 537 kts 76°
2026-04-25 16:03 22.28001 -43.99859 39130 ft 538 kts 76°
2026-04-25 16:04 22.29534 -43.91948 39129 ft 538 kts 76°
2026-04-25 16:04 22.31061 -43.84025 39127 ft 539 kts 76°
2026-04-25 16:05 22.32583 -43.76101 39131 ft 539 kts 76°
2026-04-25 16:06 22.34866 -43.64199 39132 ft 539 kts 76°
2026-04-25 16:06 22.36383 -43.56265 39136 ft 540 kts 76°
2026-04-25 16:07 22.37891 -43.48315 39135 ft 540 kts 76°
2026-04-25 16:07 22.39399 -43.40357 39142 ft 540 kts 76°
2026-04-25 16:08 22.40901 -43.32395 39139 ft 540 kts 76°
2026-04-25 16:08 22.42396 -43.24475 39128 ft 540 kts 76°
2026-04-25 16:09 22.43901 -43.16511 39134 ft 540 kts 76°
2026-04-25 16:09 22.45392 -43.08546 39137 ft 540 kts 76°
2026-04-25 16:10 22.46880 -43.00576 39144 ft 540 kts 76°
2026-04-25 16:10 22.48362 -42.92605 39139 ft 540 kts 76°
2026-04-25 16:11 22.49842 -42.84634 39137 ft 540 kts 76°
2026-04-25 16:11 22.51322 -42.76667 39136 ft 540 kts 76°
2026-04-25 16:12 22.52800 -42.68688 39136 ft 540 kts 76°
2026-04-25 16:12 22.54271 -42.60767 39148 ft 540 kts 76°
2026-04-25 16:13 22.55739 -42.52797 39142 ft 540 kts 76°
2026-04-25 16:13 22.57194 -42.44820 39138 ft 540 kts 76°
2026-04-25 16:14 22.58648 -42.36845 39141 ft 540 kts 76°
2026-04-25 16:14 22.60099 -42.28865 39139 ft 540 kts 76°
2026-04-25 16:15 22.61544 -42.20885 39133 ft 540 kts 76°
2026-04-25 16:15 22.63000 -42.12907 39137 ft 540 kts 76°
2026-04-25 16:16 22.64442 -42.04936 39135 ft 540 kts 76°
2026-04-25 16:16 22.65868 -41.97004 39137 ft 540 kts 76°
2026-04-25 16:17 22.67295 -41.89022 39140 ft 540 kts 76°
2026-04-25 16:17 22.68728 -41.81036 39133 ft 540 kts 76°
2026-04-25 16:18 22.70158 -41.73058 39142 ft 540 kts 76°
2026-04-25 16:18 22.71580 -41.65075 39141 ft 540 kts 76°
2026-04-25 16:19 22.72995 -41.57083 39127 ft 540 kts 76°
2026-04-25 16:19 22.74414 -41.49089 39133 ft 540 kts 76°
2026-04-25 16:20 22.76522 -41.37093 39135 ft 540 kts 76°
2026-04-25 16:21 22.78621 -41.25127 39134 ft 540 kts 76°
2026-04-25 16:21 22.80021 -41.17118 39138 ft 540 kts 76°
2026-04-25 16:22 22.81404 -41.09171 39134 ft 540 kts 76°
2026-04-25 16:22 22.82798 -41.01179 39134 ft 540 kts 76°
2026-04-25 16:23 22.84189 -40.93180 39134 ft 540 kts 76°
2026-04-25 16:23 22.85566 -40.85180 39138 ft 540 kts 76°
2026-04-25 16:24 22.86942 -40.77172 39136 ft 539 kts 76°
2026-04-25 16:24 22.88309 -40.69172 39144 ft 539 kts 76°
2026-04-25 16:25 22.89678 -40.61172 39137 ft 540 kts 76°
2026-04-25 16:25 22.91050 -40.53152 39134 ft 540 kts 76°
2026-04-25 16:26 22.92410 -40.45143 39143 ft 540 kts 76°
2026-04-25 16:26 22.93761 -40.37172 39141 ft 540 kts 76°
2026-04-25 16:27 22.95116 -40.29147 39136 ft 541 kts 76°
2026-04-25 16:27 22.96247 -40.22414 39141 ft 541 kts 76°
2026-04-25 16:28 22.97581 -40.14426 39137 ft 541 kts 76°
2026-04-25 16:28 22.98933 -40.06386 39137 ft 542 kts 76°
2026-04-25 16:29 22.99289 -39.98195 39136 ft 548 kts 95°
2026-04-25 16:29 22.97641 -39.90109 39126 ft 548 kts 105°
2026-04-25 16:30 22.95734 -39.82087 39138 ft 548 kts 104°
2026-04-25 16:30 22.93856 -39.74059 39142 ft 549 kts 104°
2026-04-25 16:31 22.91958 -39.66031 39144 ft 549 kts 104°
2026-04-25 16:31 22.90039 -39.58011 39142 ft 549 kts 105°
2026-04-25 16:32 22.88116 -39.49980 39145 ft 550 kts 104°
2026-04-25 16:32 22.86194 -39.41955 39135 ft 550 kts 105°
2026-04-25 16:33 22.84285 -39.33984 39151 ft 549 kts 105°
2026-04-25 16:33 22.82348 -39.25965 39144 ft 550 kts 105°
2026-04-25 16:34 22.80411 -39.17941 39146 ft 550 kts 105°
2026-04-25 16:34 22.78469 -39.09927 39148 ft 550 kts 105°
2026-04-25 16:35 22.76522 -39.01901 39147 ft 551 kts 105°
2026-04-25 16:35 22.74569 -38.93881 39142 ft 550 kts 105°
2026-04-25 16:36 22.72618 -38.85871 39144 ft 550 kts 105°
2026-04-25 16:36 22.70662 -38.77873 39150 ft 549 kts 105°
2026-04-25 16:37 22.68705 -38.69871 39144 ft 549 kts 105°
2026-04-25 16:37 22.66752 -38.61876 39153 ft 549 kts 105°
2026-04-25 16:38 22.64780 -38.53880 39143 ft 549 kts 105°
2026-04-25 16:38 22.62822 -38.45944 39134 ft 548 kts 105°
2026-04-25 16:39 22.60857 -38.37967 39151 ft 548 kts 105°
2026-04-25 16:39 22.58886 -38.30002 39145 ft 548 kts 105°
2026-04-25 16:40 22.56906 -38.22027 39144 ft 548 kts 105°
2026-04-25 16:40 22.54932 -38.14072 39145 ft 548 kts 105°
2026-04-25 16:41 22.52937 -38.06109 39142 ft 549 kts 105°
2026-04-25 16:41 22.49953 -37.94152 39139 ft 549 kts 105°
2026-04-25 16:42 22.47955 -37.86168 39140 ft 550 kts 105°
2026-04-25 16:42 22.45951 -37.78184 39139 ft 550 kts 105°
2026-04-25 16:43 22.43933 -37.70209 39147 ft 550 kts 105°
2026-04-25 16:43 22.41924 -37.62230 39140 ft 550 kts 105°
2026-04-25 16:44 22.39912 -37.54244 39119 ft 550 kts 105°
2026-04-25 16:44 22.37888 -37.46278 39145 ft 549 kts 105°
2026-04-25 16:45 22.35860 -37.38314 39141 ft 550 kts 105°
2026-04-25 16:45 22.33844 -37.30405 39139 ft 549 kts 105°
2026-04-25 16:46 22.31816 -37.22438 39145 ft 549 kts 105°
2026-04-25 16:46 22.30458 -37.17120 39139 ft 549 kts 105°
2026-04-25 16:47 22.27744 -37.06523 39136 ft 550 kts 105°
2026-04-25 16:47 22.25697 -36.98574 39142 ft 549 kts 105°
2026-04-25 16:48 22.23642 -36.90625 39138 ft 550 kts 105°
2026-04-25 16:48 22.21598 -36.82721 39138 ft 550 kts 105°
2026-04-25 16:49 22.19545 -36.74763 39141 ft 550 kts 105°
2026-04-25 16:49 22.17485 -36.66806 39142 ft 550 kts 105°
2026-04-25 16:50 22.15427 -36.58843 39136 ft 550 kts 105°
2026-04-25 16:50 22.13373 -36.50941 39127 ft 550 kts 105°
2026-04-25 16:51 22.11296 -36.43007 39139 ft 549 kts 105°
2026-04-25 16:51 22.09908 -36.37687 39140 ft 549 kts 105°
2026-04-25 16:52 22.07150 -36.27144 39137 ft 549 kts 106°
2026-04-25 16:52 22.05067 -36.19229 39139 ft 549 kts 106°
2026-04-25 16:53 22.01941 -36.07354 39136 ft 549 kts 106°
2026-04-25 16:54 21.99827 -35.99448 39134 ft 548 kts 107°
2026-04-25 16:54 21.97345 -35.91731 39138 ft 548 kts 112°
2026-04-25 16:55 21.94507 -35.84103 39134 ft 547 kts 113°
2026-04-25 16:55 21.91684 -35.76493 39138 ft 547 kts 112°
2026-04-25 16:56 21.88978 -35.68834 39137 ft 547 kts 111°
2026-04-25 16:56 21.86310 -35.61155 39135 ft 547 kts 111°
2026-04-25 16:57 21.83613 -35.53484 39128 ft 547 kts 111°
2026-04-25 16:57 21.80898 -35.45832 39136 ft 547 kts 112°
2026-04-25 16:58 21.78185 -35.38189 39139 ft 547 kts 112°
2026-04-25 16:58 21.75472 -35.30600 39128 ft 546 kts 112°
2026-04-25 16:59 21.72750 -35.22966 39133 ft 546 kts 112°
2026-04-25 16:59 21.70020 -35.15329 39127 ft 547 kts 112°
2026-04-25 17:00 21.67295 -35.07699 39120 ft 546 kts 112°
2026-04-25 17:00 21.64577 -35.00078 39127 ft 546 kts 112°
2026-04-25 17:01 21.61841 -34.92466 39134 ft 546 kts 112°
2026-04-25 17:01 21.59104 -34.84864 39125 ft 546 kts 112°
2026-04-25 17:02 21.56366 -34.77254 39120 ft 545 kts 112°
2026-04-25 17:02 21.53641 -34.69693 39110 ft 546 kts 112°
2026-04-25 17:03 21.50900 -34.62096 39115 ft 545 kts 112°
2026-04-25 17:03 21.48161 -34.54507 39118 ft 545 kts 112°
2026-04-25 17:04 21.45408 -34.46918 39129 ft 545 kts 112°
2026-04-25 17:04 21.42653 -34.39323 39126 ft 545 kts 112°
2026-04-25 17:05 21.39895 -34.31739 39119 ft 545 kts 112°
2026-04-25 17:05 21.35759 -34.20376 39115 ft 545 kts 112°
2026-04-25 17:06 21.32994 -34.12810 39118 ft 545 kts 112°
2026-04-25 17:06 21.30226 -34.05249 39123 ft 544 kts 112°
2026-04-25 17:07 21.27458 -33.97694 39120 ft 544 kts 112°
2026-04-25 17:07 21.24692 -33.90143 39120 ft 544 kts 112°
2026-04-25 17:08 21.22390 -33.83863 39118 ft 544 kts 112°
2026-04-25 17:08 21.19616 -33.76313 39098 ft 544 kts 112°
2026-04-25 17:09 21.16839 -33.68777 39122 ft 543 kts 112°
2026-04-25 17:09 21.14059 -33.61256 39119 ft 542 kts 112°
2026-04-25 17:10 21.11297 -33.53794 39118 ft 542 kts 112°
2026-04-25 17:10 21.08526 -33.46283 39117 ft 542 kts 112°
2026-04-25 17:11 21.05751 -33.38774 39120 ft 542 kts 112°
2026-04-25 17:11 21.02961 -33.31257 39112 ft 542 kts 112°
2026-04-25 17:12 21.00174 -33.23764 39113 ft 542 kts 112°
2026-04-25 17:12 20.97372 -33.16265 39107 ft 542 kts 112°
2026-04-25 17:13 20.95047 -33.10036 39114 ft 542 kts 112°
2026-04-25 17:13 20.91784 -33.01265 39109 ft 543 kts 112°
2026-04-25 17:14 20.88989 -32.93809 39105 ft 543 kts 113°
2026-04-25 17:14 20.86160 -32.86267 39113 ft 543 kts 113°
2026-04-25 17:15 20.83361 -32.78820 39093 ft 543 kts 113°
2026-04-25 17:15 20.80540 -32.71326 39100 ft 542 kts 113°
2026-04-25 17:16 20.77729 -32.63845 39102 ft 542 kts 113°
2026-04-25 17:16 20.74912 -32.56370 39110 ft 542 kts 113°
2026-04-25 17:17 20.72085 -32.48888 39105 ft 542 kts 113°
2026-04-25 17:17 20.69262 -32.41411 39098 ft 542 kts 113°
2026-04-25 17:18 20.66433 -32.33945 39089 ft 542 kts 113°
2026-04-25 17:18 20.63598 -32.26478 39097 ft 542 kts 113°
2026-04-25 17:19 20.60774 -32.19024 39100 ft 541 kts 113°
2026-04-25 17:19 20.57966 -32.11622 39100 ft 541 kts 113°
2026-04-25 17:20 20.55129 -32.04181 39097 ft 541 kts 113°
2026-04-25 17:20 20.52280 -31.96739 39095 ft 541 kts 113°
2026-04-25 17:21 20.49438 -31.89299 39092 ft 541 kts 113°
2026-04-25 17:21 20.46597 -31.81859 39080 ft 540 kts 113°
2026-04-25 17:22 20.44230 -31.75692 39093 ft 540 kts 113°
2026-04-25 17:22 20.40793 -31.67071 39089 ft 539 kts 116°
2026-04-25 17:23 20.37577 -31.59842 39091 ft 539 kts 117°
2026-04-25 17:23 20.34303 -31.52650 39090 ft 539 kts 117°
2026-04-25 17:24 20.31091 -31.45432 39088 ft 539 kts 116°
2026-04-25 17:24 20.27932 -31.38183 39074 ft 539 kts 116°
2026-04-25 17:25 20.24791 -31.30995 39089 ft 538 kts 116°
2026-04-25 17:25 20.21609 -31.23782 39092 ft 538 kts 116°
2026-04-25 17:26 20.18415 -31.16583 39094 ft 538 kts 116°
2026-04-25 17:26 20.15212 -31.09369 39083 ft 537 kts 116°
2026-04-25 17:27 20.12025 -31.02179 39078 ft 537 kts 116°
2026-04-25 17:27 20.09887 -30.97365 39084 ft 537 kts 116°
2026-04-25 17:28 20.05644 -30.87833 39078 ft 536 kts 116°
2026-04-25 17:28 20.02439 -30.80613 39079 ft 536 kts 116°
2026-04-25 17:29 19.99270 -30.73489 39084 ft 536 kts 116°
2026-04-25 17:29 19.96067 -30.66330 39087 ft 536 kts 116°
2026-04-25 17:30 19.92877 -30.59177 39085 ft 536 kts 116°
2026-04-25 17:30 19.89676 -30.52022 39081 ft 536 kts 117°
2026-04-25 17:31 19.86467 -30.44885 39074 ft 535 kts 117°
2026-04-25 17:31 19.83262 -30.37764 39078 ft 534 kts 116°
2026-04-25 17:32 19.80070 -30.30636 39076 ft 534 kts 116°
2026-04-25 17:32 19.76875 -30.23515 39077 ft 533 kts 117°
2026-04-25 17:33 19.73686 -30.16461 39081 ft 533 kts 117°
2026-04-25 17:33 19.70473 -30.09371 39086 ft 533 kts 117°
2026-04-25 17:34 19.67272 -30.02274 39062 ft 533 kts 117°
2026-04-25 17:34 19.64081 -29.95190 39074 ft 532 kts 117°
2026-04-25 17:35 19.60881 -29.88119 39076 ft 531 kts 117°
2026-04-25 17:35 19.57677 -29.81065 39085 ft 531 kts 117°
2026-04-25 17:36 19.54484 -29.74004 39076 ft 531 kts 117°
2026-04-25 17:36 19.51275 -29.66948 39069 ft 531 kts 117°
2026-04-25 17:37 19.48066 -29.59903 39068 ft 531 kts 117°
2026-04-25 17:37 19.44857 -29.52862 39074 ft 530 kts 117°
2026-04-25 17:38 19.42707 -29.48152 39076 ft 530 kts 117°
2026-04-25 17:38 19.38439 -29.38806 39070 ft 529 kts 117°
2026-04-25 17:39 19.35230 -29.31788 39063 ft 529 kts 117°
2026-04-25 17:39 19.32015 -29.24766 39070 ft 529 kts 117°
2026-04-25 17:40 19.28804 -29.17748 39066 ft 529 kts 117°
2026-04-25 17:40 19.25608 -29.10778 39053 ft 529 kts 117°
2026-04-25 17:41 19.22365 -29.03732 39060 ft 528 kts 117°
2026-04-25 17:41 19.19174 -28.96788 39063 ft 528 kts 117°
2026-04-25 17:42 19.15958 -28.89800 39062 ft 528 kts 117°
2026-04-25 17:42 19.12741 -28.82825 39063 ft 528 kts 117°
2026-04-25 17:43 19.09516 -28.75849 39060 ft 528 kts 117°
2026-04-25 17:43 19.06292 -28.68876 39060 ft 527 kts 117°
2026-04-25 17:44 19.03065 -28.61909 39060 ft 527 kts 118°
2026-04-25 17:44 18.99833 -28.54943 39057 ft 527 kts 118°
2026-04-25 17:45 18.97698 -28.50326 39054 ft 527 kts 117°
2026-04-25 17:45 18.93395 -28.41062 39049 ft 527 kts 118°
2026-04-25 17:46 18.90143 -28.34064 39049 ft 527 kts 118°
2026-04-25 17:46 18.86925 -28.27160 39050 ft 527 kts 118°
2026-04-25 17:47 18.83683 -28.20211 39052 ft 527 kts 118°
2026-04-25 17:47 18.80440 -28.13262 39044 ft 527 kts 118°
2026-04-25 17:48 18.75586 -28.02871 39054 ft 526 kts 118°
2026-04-25 17:49 18.72341 -27.95950 39052 ft 525 kts 118°
2026-04-25 17:49 18.69650 -27.90212 39053 ft 525 kts 118°
2026-04-25 17:50 18.66407 -27.83300 39050 ft 525 kts 118°
2026-04-25 17:50 18.63170 -27.76392 39055 ft 525 kts 118°
2026-04-25 17:51 18.59928 -27.69489 39052 ft 525 kts 118°
2026-04-25 17:51 18.56688 -27.62601 39051 ft 524 kts 118°
2026-04-25 17:52 18.53433 -27.55705 39049 ft 524 kts 118°
2026-04-25 17:52 18.50181 -27.48824 39050 ft 524 kts 118°
2026-04-25 17:53 18.46930 -27.41957 39056 ft 524 kts 118°
2026-04-25 17:53 18.43701 -27.35129 39046 ft 524 kts 118°
2026-04-25 17:54 18.40447 -27.28255 39045 ft 524 kts 118°
2026-04-25 17:54 18.37196 -27.21380 39043 ft 524 kts 118°
2026-04-25 17:55 18.33930 -27.14502 39038 ft 524 kts 118°
2026-04-25 17:55 18.30669 -27.07639 39040 ft 524 kts 118°
2026-04-25 17:56 18.27403 -27.00769 39042 ft 524 kts 118°
2026-04-25 17:56 18.24145 -26.93910 39039 ft 524 kts 118°
2026-04-25 17:57 18.20878 -26.87046 39038 ft 524 kts 118°
2026-04-25 17:57 18.17602 -26.80204 39038 ft 524 kts 119°
2026-04-25 17:58 18.14329 -26.73362 39038 ft 524 kts 119°
2026-04-25 17:58 18.11086 -26.66566 39028 ft 523 kts 119°
2026-04-25 17:59 18.07817 -26.59740 39032 ft 522 kts 119°
2026-04-25 17:59 18.04551 -26.52922 39036 ft 522 kts 119°
2026-04-25 18:00 18.01281 -26.46116 39033 ft 522 kts 119°
2026-04-25 18:00 17.98008 -26.39308 39038 ft 522 kts 119°
2026-04-25 18:01 17.94738 -26.32495 39033 ft 522 kts 119°
2026-04-25 18:01 17.91470 -26.25695 39035 ft 521 kts 119°
2026-04-25 18:02 17.88196 -26.18901 39029 ft 520 kts 119°
2026-04-25 18:02 17.84914 -26.12122 39031 ft 520 kts 119°
2026-04-25 18:03 17.81642 -26.05359 39033 ft 519 kts 119°
2026-04-25 18:03 17.78347 -25.98615 39028 ft 519 kts 120°
2026-04-25 18:04 17.74897 -25.91976 39019 ft 518 kts 122°
2026-04-25 18:04 17.71401 -25.85420 39032 ft 518 kts 122°
2026-04-25 18:05 17.67926 -25.78808 39024 ft 518 kts 121°
2026-04-25 18:05 17.64459 -25.72130 39021 ft 518 kts 121°
2026-04-25 18:06 17.61042 -25.65538 39029 ft 518 kts 121°
2026-04-25 18:06 17.57581 -25.58920 39030 ft 518 kts 121°
2026-04-25 18:07 17.54079 -25.52265 39025 ft 518 kts 121°
2026-04-25 18:07 17.50612 -25.45643 39024 ft 519 kts 121°
2026-04-25 18:08 17.47169 -25.39052 39026 ft 519 kts 121°
2026-04-25 18:08 17.43693 -25.32432 39025 ft 519 kts 121°
2026-04-25 18:09 17.40207 -25.25816 39008 ft 518 kts 121°
2026-04-25 18:09 17.36732 -25.19197 39019 ft 517 kts 121°
2026-04-25 18:10 17.33265 -25.12600 39024 ft 517 kts 121°
2026-04-25 18:10 17.29794 -25.06016 39019 ft 516 kts 121°
2026-04-25 18:11 17.26323 -24.99450 39029 ft 515 kts 121°
2026-04-25 18:11 17.22870 -24.92906 39029 ft 513 kts 121°
2026-04-25 18:12 17.19429 -24.86384 39017 ft 512 kts 121°
2026-04-25 18:12 17.15983 -24.79872 39016 ft 511 kts 121°
2026-04-25 18:13 17.12541 -24.73374 39013 ft 510 kts 121°
2026-04-25 18:13 17.09111 -24.66890 39008 ft 509 kts 121°
2026-04-25 18:14 17.03976 -24.57217 39005 ft 509 kts 122°
2026-04-25 18:14 17.00528 -24.50725 39002 ft 510 kts 122°
2026-04-25 18:15 16.97079 -24.44250 38984 ft 510 kts 122°
2026-04-25 18:15 16.93625 -24.37773 38994 ft 510 kts 122°
2026-04-25 18:16 16.90176 -24.31286 38991 ft 511 kts 122°
2026-04-25 18:17 16.85002 -24.21566 38993 ft 510 kts 122°
2026-04-25 18:17 16.81538 -24.15105 38994 ft 509 kts 122°
2026-04-25 18:18 16.78085 -24.08660 38999 ft 509 kts 122°
2026-04-25 18:18 16.74635 -24.02207 39000 ft 509 kts 122°
2026-04-25 18:19 16.71187 -23.95756 39002 ft 509 kts 122°
2026-04-25 18:19 16.67757 -23.89357 38999 ft 509 kts 122°
2026-04-25 18:20 16.64298 -23.82924 38991 ft 508 kts 122°
2026-04-25 18:20 16.60844 -23.76486 38992 ft 508 kts 122°
2026-04-25 18:21 16.57391 -23.70057 38990 ft 508 kts 122°
2026-04-25 18:21 16.53930 -23.63633 38990 ft 508 kts 122°
2026-04-25 18:22 16.50469 -23.57205 38986 ft 508 kts 122°
2026-04-25 18:22 16.47010 -23.50775 38985 ft 509 kts 122°
2026-04-25 18:23 16.43544 -23.44353 38983 ft 509 kts 122°
2026-04-25 18:23 16.40066 -23.37936 38984 ft 508 kts 122°
2026-04-25 18:24 16.36590 -23.31517 38972 ft 508 kts 122°
2026-04-25 18:24 16.33125 -23.25107 38978 ft 507 kts 122°
2026-04-25 18:25 16.29686 -23.18738 38984 ft 507 kts 122°
2026-04-25 18:25 16.26226 -23.12348 38983 ft 507 kts 122°
2026-04-25 18:26 16.22757 -23.05967 38984 ft 506 kts 122°
2026-04-25 18:26 16.19290 -22.99589 38982 ft 506 kts 122°
2026-04-25 18:27 16.15823 -22.93213 38970 ft 506 kts 122°
2026-04-25 18:27 16.12366 -22.86837 38970 ft 506 kts 122°
2026-04-25 18:28 16.08954 -22.80438 38959 ft 505 kts 121°
2026-04-25 18:28 16.05581 -22.74032 38969 ft 505 kts 121°
2026-04-25 18:29 16.00492 -22.64447 38968 ft 504 kts 122°
2026-04-25 18:30 15.94261 -22.52780 38969 ft 504 kts 122°
2026-04-25 18:30 15.90857 -22.46406 38973 ft 504 kts 122°
2026-04-25 18:31 15.87457 -22.40016 38970 ft 505 kts 122°
2026-04-25 18:31 15.84056 -22.33633 38974 ft 505 kts 122°
2026-04-25 18:32 15.80650 -22.27262 38965 ft 504 kts 122°
2026-04-25 18:32 15.77239 -22.20901 38969 ft 504 kts 122°
2026-04-25 18:33 15.73832 -22.14536 38966 ft 504 kts 122°
2026-04-25 18:33 15.70420 -22.08172 38966 ft 504 kts 122°
2026-04-25 18:34 15.67008 -22.01820 38966 ft 504 kts 122°
2026-04-25 18:34 15.63589 -21.95451 38967 ft 504 kts 122°
2026-04-25 18:35 15.60172 -21.89094 38965 ft 504 kts 122°
2026-04-25 18:35 15.56750 -21.82731 38965 ft 505 kts 122°
2026-04-25 18:36 15.53334 -21.76379 38966 ft 504 kts 121°
2026-04-25 18:36 15.49916 -21.70040 38963 ft 503 kts 122°
2026-04-25 18:37 15.46498 -21.63711 38956 ft 503 kts 122°
2026-04-25 18:37 15.43079 -21.57388 38957 ft 503 kts 122°
2026-04-25 18:38 15.39662 -21.51065 38956 ft 503 kts 122°
2026-04-25 18:38 15.36248 -21.44734 38959 ft 503 kts 121°
2026-04-25 18:39 15.32829 -21.38410 38957 ft 503 kts 122°
2026-04-25 18:39 15.29405 -21.32100 38956 ft 503 kts 122°
2026-04-25 18:40 15.26004 -21.25823 38951 ft 502 kts 121°
2026-04-25 18:40 15.22589 -21.19524 38954 ft 501 kts 121°
2026-04-25 18:41 15.19169 -21.13235 38953 ft 500 kts 122°
2026-04-25 18:41 15.15752 -21.06958 38954 ft 500 kts 122°
2026-04-25 18:42 15.12912 -21.01743 38949 ft 500 kts 121°
2026-04-25 18:42 15.08924 -20.94403 38950 ft 500 kts 121°
2026-04-25 18:43 15.05509 -20.88126 38949 ft 500 kts 122°
2026-04-25 18:43 15.02088 -20.81856 38951 ft 500 kts 122°
2026-04-25 18:44 14.98660 -20.75590 38945 ft 500 kts 121°
2026-04-25 18:44 14.95239 -20.69336 38952 ft 499 kts 121°
2026-04-25 18:45 14.91826 -20.63084 38951 ft 499 kts 121°
2026-04-25 18:45 14.88416 -20.56845 38949 ft 499 kts 121°
2026-04-25 18:46 14.85020 -20.50639 38946 ft 498 kts 121°
2026-04-25 18:46 14.81609 -20.44397 38944 ft 498 kts 121°
2026-04-25 18:47 14.78189 -20.38156 38945 ft 498 kts 121°
2026-04-25 18:47 14.74770 -20.31931 38945 ft 498 kts 121°
2026-04-25 18:48 14.71347 -20.25712 38933 ft 498 kts 121°
2026-04-25 18:48 14.68250 -20.19322 38941 ft 499 kts 110°
2026-04-25 18:49 14.66081 -20.12519 38944 ft 498 kts 109°
2026-04-25 18:49 14.63905 -20.05722 38938 ft 498 kts 109°
2026-04-25 18:50 14.61718 -19.98926 38936 ft 498 kts 109°
2026-04-25 18:50 14.59554 -19.92178 38934 ft 498 kts 109°
2026-04-25 18:51 14.57725 -19.86497 38931 ft 498 kts 109°
2026-04-25 18:51 14.55184 -19.78616 38932 ft 498 kts 109°
2026-04-25 18:52 14.53001 -19.71822 38933 ft 498 kts 109°
2026-04-25 18:52 14.50820 -19.65031 38930 ft 498 kts 109°
2026-04-25 18:53 14.48628 -19.58251 38930 ft 498 kts 109°
2026-04-25 18:53 14.46436 -19.51466 38931 ft 498 kts 109°
2026-04-25 18:54 14.43149 -19.41314 38940 ft 496 kts 109°
2026-04-25 18:55 14.40966 -19.34582 38935 ft 494 kts 109°
2026-04-25 18:55 14.38797 -19.27862 38933 ft 493 kts 109°
2026-04-25 18:55 14.37715 -19.24517 38751 ft 491 kts 109°
2026-04-25 18:56 14.36636 -19.21181 38521 ft 490 kts 109°
2026-04-25 18:56 14.35551 -19.17846 38250 ft 490 kts 109°
2026-04-25 18:56 14.34476 -19.14554 37987 ft 490 kts 109°
2026-04-25 18:56 14.33387 -19.11222 37719 ft 491 kts 109°
2026-04-25 18:57 14.32292 -19.07879 37447 ft 492 kts 109°
2026-04-25 18:57 14.31197 -19.04536 37016 ft 493 kts 109°
2026-04-25 18:57 14.30105 -19.01183 36520 ft 493 kts 108°
2026-04-25 18:57 14.29737 -19.00051 36357 ft 493 kts 108°
2026-04-25 18:58 14.27923 -18.94462 35585 ft 495 kts 108°
2026-04-25 18:58 14.25722 -18.87708 34692 ft 498 kts 108°
2026-04-25 18:58 14.24617 -18.84323 34258 ft 499 kts 108°
2026-04-25 18:59 14.22397 -18.77520 33332 ft 501 kts 108°
2026-04-25 18:59 14.20162 -18.70688 32377 ft 503 kts 107°
2026-04-25 19:00 14.17916 -18.63833 31457 ft 506 kts 107°
2026-04-25 19:00 14.16809 -18.60439 31002 ft 506 kts 107°
2026-04-25 19:01 14.14554 -18.53556 30135 ft 508 kts 107°
2026-04-25 19:01 14.13420 -18.50104 29657 ft 509 kts 107°
2026-04-25 19:01 14.12281 -18.46651 29160 ft 509 kts 107°
2026-04-25 19:01 14.11140 -18.43197 28651 ft 509 kts 108°
2026-04-25 19:02 14.08862 -18.36284 27636 ft 509 kts 108°
2026-04-25 19:02 14.07727 -18.32828 27142 ft 509 kts 108°
2026-04-25 19:02 14.06587 -18.29367 26656 ft 510 kts 108°
2026-04-25 19:03 14.05063 -18.24743 26023 ft 510 kts 108°
2026-04-25 19:03 14.03168 -18.18993 25254 ft 510 kts 108°
2026-04-25 19:03 14.02027 -18.15524 24794 ft 511 kts 108°
2026-04-25 19:04 14.01055 -18.08369 23912 ft 504 kts 83°
2026-04-25 19:04 14.01797 -18.04873 23482 ft 498 kts 69°
2026-04-25 19:05 14.04243 -17.98238 22292 ft 489 kts 68°
2026-04-25 19:05 14.06640 -17.91769 20965 ft 479 kts 68°
2026-04-25 19:05 14.07836 -17.88531 20474 ft 483 kts 68°
2026-04-25 19:06 14.09023 -17.85309 19972 ft 480 kts 68°
2026-04-25 19:06 14.11368 -17.78921 18905 ft 474 kts 68°
2026-04-25 19:06 14.12520 -17.75786 18359 ft 471 kts 68°
2026-04-25 19:07 14.14741 -17.69761 16463 ft 424 kts 69°
2026-04-25 19:07 14.15798 -17.66898 15385 ft 435 kts 69°
2026-04-25 19:08 14.17960 -17.61026 13229 ft 440 kts 70°
2026-04-25 19:08 14.19030 -17.58109 12486 ft 430 kts 70°
2026-04-25 19:09 14.22109 -17.49712 10481 ft 402 kts 70°
2026-04-25 19:09 14.22439 -17.48815 10422 ft 390 kts 70°
2026-04-25 19:09 14.24699 -17.42670 9144 ft 309 kts 70°
2026-04-25 19:10 14.24945 -17.41999 8990 ft 306 kts 70°
2026-04-25 19:10 14.25925 -17.39312 8792 ft 296 kts 70°
2026-04-25 19:10 14.26646 -17.37335 8654 ft 294 kts 70°
2026-04-25 19:10 14.27364 -17.35365 8405 ft 293 kts 69°
2026-04-25 19:11 14.28078 -17.33402 8164 ft 292 kts 69°
2026-04-25 19:11 14.28795 -17.31440 7817 ft 292 kts 69°
2026-04-25 19:11 14.29507 -17.29493 7401 ft 289 kts 68°
2026-04-25 19:11 14.30213 -17.27565 7001 ft 287 kts 68°
2026-04-25 19:12 14.30911 -17.25660 6421 ft 282 kts 67°
2026-04-25 19:12 14.31605 -17.23763 5923 ft 282 kts 67°
2026-04-25 19:12 14.32290 -17.21887 5519 ft 278 kts 67°
2026-04-25 19:12 14.32966 -17.20032 5113 ft 275 kts 66°
2026-04-25 19:13 14.33639 -17.18190 4681 ft 273 kts 67°
2026-04-25 19:13 14.34307 -17.16365 4339 ft 268 kts 66°
2026-04-25 19:13 14.34944 -17.14616 4217 ft 254 kts 67°
2026-04-25 19:13 14.35548 -17.12947 4085 ft 243 kts 66°
2026-04-25 19:14 14.36132 -17.11341 3892 ft 236 kts 66°
2026-04-25 19:14 14.36514 -17.10292 3704 ft 235 kts 64°
2026-04-25 19:14 14.37618 -17.08418 3350 ft 225 kts 42°
2026-04-25 19:14 14.38848 -17.07509 3233 ft 212 kts 24°
2026-04-25 19:15 14.40220 -17.07078 3129 ft 202 kts
2026-04-25 19:15 14.41588 -17.07045 3041 ft 192 kts 359°
2026-04-25 19:15 14.42896 -17.07057 3023 ft 181 kts 359°
2026-04-25 19:15 14.44132 -17.07068 3012 ft 172 kts
2026-04-25 19:16 14.45314 -17.07078 3006 ft 169 kts
2026-04-25 19:16 14.46484 -17.07089 3008 ft 169 kts 360°
2026-04-25 19:16 14.47659 -17.07100 3012 ft 168 kts
2026-04-25 19:16 14.48835 -17.07111 3009 ft 171 kts 359°
2026-04-25 19:17 14.50063 -17.07123 3009 ft 179 kts 360°
2026-04-25 19:17 14.51314 -17.07135 2884 ft 179 kts
2026-04-25 19:17 14.52545 -17.07146 2703 ft 177 kts 359°
2026-04-25 19:17 14.53766 -17.07157 2484 ft 176 kts
2026-04-25 19:18 14.55003 -17.07169 2254 ft 173 kts 360°
2026-04-25 19:18 14.56133 -17.07180 2055 ft 151 kts
2026-04-25 19:18 14.57128 -17.07194 1828 ft 137 kts
2026-04-25 19:18 14.58041 -17.07198 1630 ft 128 kts
2026-04-25 19:19 14.58920 -17.07205 1434 ft 124 kts
2026-04-25 19:19 14.59781 -17.07212 1304 ft 123 kts
2026-04-25 19:19 14.60628 -17.07208 1147 ft 121 kts 359°
2026-04-25 19:19 14.61191 -17.07209 1037 ft 124 kts 358°
2026-04-25 19:20 14.62322 -17.07241 869 ft 121 kts 359°
2026-04-25 19:20 14.63157 -17.07241 788 ft 119 kts
2026-04-25 19:20 14.63985 -17.07244 628 ft 119 kts 358°
2026-04-25 19:20 14.64815 -17.07256 480 ft 120 kts 357°
2026-04-25 19:21 14.65644 -17.07267 352 ft 118 kts 358°
2026-04-25 19:21 14.66949 -17.07282 301 ft 65 kts 359°
2026-04-25 19:21 14.67401 -17.07286 296 ft 63 kts
2026-04-25 19:22 14.67701 -17.07246 288 ft 36 kts 21°
2026-04-25 19:22 14.67793 -17.07196 285 ft 1 kts 31°
2026-04-25 19:22 14.67820 -17.07111 289 ft 10 kts 143°
2026-04-25 19:23 14.67764 -17.07095 288 ft 7 kts 174°
2026-04-25 19:23 14.67570 -17.07095 294 ft 16 kts 179°
2026-04-25 19:23 14.67463 -17.07094 292 ft 15 kts 179°
2026-04-25 19:24 14.67359 -17.07093 294 ft 14 kts 180°
2026-04-25 19:24 14.67244 -17.07093 295 ft 21 kts 180°
2026-04-25 19:24 14.67078 -17.07023 293 ft 12 kts 95°
2026-04-25 19:25 14.67024 -17.06946 298 ft 4 kts 107°
2026-04-25 19:25 14.67023 -17.06919 294 ft 4 kts 88°
2026-04-25 19:25 14.67023 -17.06891 292 ft 3 kts 89°
2026-04-25 19:26 14.67023 -17.06879 294 ft 1 kts 89°
2026-04-25 19:26 14.67023 -17.06869 292 ft 1 kts 89°
2026-04-25 19:26 14.67023 -17.06863 292 ft 0 kts 89°